User: anonymous   Login
Location: Unspecified
(0.0000°N, 0.0000°E)
Time: 01:26:50
(UTC+00:00)
Language:

SEEDS - Orbit

View from above orbital plane
View from above orbital plane
View from above satellite
View from above satellite

Ground track
Ground track

The orbit is defined by the following mean orbital elements,

1 32791U          26138.74718773 +.00000000 +00000-0 +37138-3 0 00004
2 32791  97.7522 135.2661 0004787  73.1038 287.0727 15.31652433    04
Epoch (UTC): 18 May 2026 17:55:57
Eccentricity: 0.0004787
inclination: 97.7522°
perigee height: 468 km
apogee height: 474 km
right ascension of ascending node: 135.2661°
argument of perigee: 73.1038°
revolutions per day: 15.31652433
mean anomaly at epoch: 287.0727°

The dashed part of the orbit path shows where the satellite is in the earth's shadow,  

DLR